Regional Weather Roundup
Issued by NWS

Home | Current Version | Previous Version | Text Only | Print | Product List | Glossary On
Versions: 1 2 3 4 5 6 7 8 9 10 11 12 13 14 15 16 17 18 19 20 21 22 23 24 25 26 27
000
ASUS45 KREV 240610
RWRNV
NEVADA REGIONAL WEATHER ROUNDUP
NATIONAL WEATHER SERVICE RENO NV
1000 PM PST MON JAN 23 2017

NOTE: "FAIR" INDICATES FEW OR NO CLOUDS BELOW 12,000 FEET WITH NO
SIGNIFICANT WEATHER AND/OR OBSTRUCTIONS TO VISIBILITY.

NVZ001-003-004-240700-
WESTERN NEVADA

CITY           SKY/WX    TMP DP  RH WIND       PRES   REMARKS
RENO           PTCLDY    21  17  84 S5        29.80R
6HR MIN TEMP:  21; 6HR MAX TEMP:  35;

CARSON CITY    CLOUDY    25  18  74 NW6       29.80R
MINDEN         CLOUDY    19  14  79 S3        29.80R
PYRAMID LAKE     N/A     32 N/A N/A NW5         N/A
FALLON         MOCLDY    28  25  88 SW3       29.78R
6HR MIN TEMP:  28; 6HR MAX TEMP:  37; 6HR PCP: TRACE;

LOVELOCK       MOCLDY    25  22  88 NE7       29.79R
6HR MIN TEMP:  25; 6HR MAX TEMP:  34;

HAWTHORNE        N/A    N/A N/A N/A CALM      29.80R
$$

NVZ002-CAZ072-073-240700-
NORTHERN AND CENTRAL SIERRA

CITY           SKY/WX    TMP DP  RH WIND       PRES   REMARKS
S. LAKE TAHOE  CLOUDY    19  15  84 CALM      29.74R
6HR MIN TEMP:   8; 6HR MAX TEMP:  23; 6HR PCP:  0.06;

TRUCKEE        CLOUDY    14  12  92 E3        29.77R
SQUAW VLY 8000   N/A     18  16  93 SW5         N/A
SUSANVILLE     CLOUDY   N/A N/A N/A SW6       29.81R
MAMMOTH LAKES  FAIR       4   1  87 CALM      29.72R
6HR MIN TEMP:   4; 6HR MAX TEMP:  24;

BRIDGEPORT       N/A      7   0  73 CALM      29.70S
$$

NVZ030-031-036-240700-
NORTHERN NEVADA

CITY           SKY/WX    TMP DP  RH WIND       PRES   REMARKS
ELKO           CLOUDY    24  18  77 S5        29.71R
6HR MIN TEMP:  23; 6HR MAX TEMP:  29;

WINNEMUCCA     CLEAR     18  16  92 S7        29.76S
6HR MIN TEMP:  16; 6HR MAX TEMP:  29;

WENDOVER       MOCLDY    28  16  59 W9        29.63S
$$

NVZ035-037-240700-
CENTRAL NEVADA

CITY           SKY/WX    TMP DP  RH WIND       PRES   REMARKS
ELY            MOCLDY    -1  -4  87 S8        29.67R
6HR MIN TEMP:  -3; 6HR MAX TEMP:  26;

EUREKA           N/A     -2  -6  83 SW3       29.71
6HR MIN TEMP:  -2; 6HR MAX TEMP:  29;

$$

NVZ013-014-240700-
SOUTH CENTRAL NEVADA

CITY           SKY/WX    TMP DP  RH WIND       PRES   REMARKS
TONOPAH        PTCLDY    23  16  74 MISG      29.73R
6HR MIN TEMP:  21; 6HR MAX TEMP:  29; 6HR PCP: TRACE;

$$

NVZ017-020-022-240700-
SOUTHERN NEVADA

CITY           SKY/WX    TMP DP  RH WIND       PRES   REMARKS
LAS VEGAS      CLOUDY    44  31  60 S5        29.71R
6HR MIN TEMP:  44; 6HR MAX TEMP:  48;

N. LAS VEGAS   CLOUDY    43  30  60 NW15      29.72R
6HR MIN TEMP:  41; 6HR MAX TEMP:  50; 6HR PCP: TRACE;

NELLIS AFB     MOCLDY    42  34  72 W21G26    29.71F
6HR MIN TEMP:  42; 6HR MAX TEMP:  49; 6HR PCP: TRACE;

HENDERSON      MOCLDY    41  32  70 S3        29.74S
6HR MIN TEMP:  40; 6HR MAX TEMP:  46;

MERCURY        CLOUDY    35  31  85 E9        29.73R
6HR MIN TEMP:  33; 6HR MAX TEMP:  45; 6HR PCP:  0.18;

$$




USA.gov is the U.S. government's official web portal to all federal, state and local government web resources and services.